[[{"header":{"parameterUnit":"m.s-1","parameterCategory":1,"la1":30.2991,"la2":30.254,"lo1":-89.0895,"lo2":-89.0444,"dy":0.0017,"dx":0.0017,"nx":28,"ny":28,"refTime":"2025-06-03T21:00:00:Z","depth":0,"parameterNumber":2,"parameterNumberName":"U-component_of_WINDS"},"data":[0,0,0,0,0,0,0,0,0,0,0,0,0,0,0,0,0,0,0,0,0,0,0,0,0,0,0,0,0,0,0,0,0,0,0,0,0,0,0,0,0,0,0,0,0,0,0,0,0,0,0,0,0,0,0,0,0,0,-1.7331,-1.733,0,-1.7227,-1.7226,-1.7225,-1.7145,-1.7144,-1.7143,-1.7143,-1.7033,-1.7031,-1.7029,0,0,0,0,0,0,0,0,0,0,0,0,0,-1.7458,-1.7456,-1.7331,-1.733,-1.7329,-1.7227,-1.7226,-1.7225,-1.7145,-1.7144,-1.7143,-1.7142,-1.7034,-1.7031,-1.7028,0,0,0,0,0,0,0,0,0,0,0,0,0,-1.7384,-1.7456,-1.7331,-1.7277,-1.7271,-1.7228,-1.7226,-1.7224,-1.7145,-1.7144,-1.7143,-1.7142,-1.7035,-1.7031,-1.7028,-1.703,0,0,-1.7018,-1.7016,0,0,0,0,0,0,0,0,-1.7388,-1.7379,-1.7286,-1.728,-1.7274,-1.7198,-1.7231,-1.7159,-1.7146,-1.7193,-1.7143,-1.7141,-1.7089,-1.7081,-1.7064,-1.7025,-1.702,-1.7018,-1.7016,-1.7014,-1.7013,0,0,0,0,0,0,0,-1.7393,-1.7383,-1.729,-1.7285,-1.7277,-1.7257,-1.7245,-1.7217,-1.7148,-1.7189,-1.7183,-1.7172,-1.7085,-1.7067,-1.706,-1.7018,-1.7018,-1.7015,-1.7013,-1.7011,-1.6976,-1.6977,0,0,0,0,0,0,-1.7407,-1.7388,-1.7293,-1.7287,-1.7329,-1.7255,-1.7242,-1.7223,-1.7148,-1.7136,-1.7173,-1.7168,-1.7073,-1.7064,-1.7056,-1.7053,-1.7014,-1.7011,-1.7009,-1.6975,-1.6976,-1.6978,0,0,0,0,0,0,-1.741,-1.74,-1.7297,-1.7336,-1.7321,-1.7254,-1.7234,-1.7222,-1.7204,-1.7136,-1.7123,-1.7167,-1.7072,-1.7061,-1.7037,-1.7048,-1.701,-1.7007,-1.6974,-1.6976,-1.6977,-1.7048,0,0,0,0,0,0,-1.7414,-1.7401,-1.7402,-1.7336,-1.7319,-1.7281,-1.7235,-1.7221,-1.7199,-1.7192,-1.7128,-1.7116,-1.707,-1.7043,-1.7034,-1.7043,-1.7004,-1.6972,-1.6975,-1.6976,-1.7044,-1.7051,-1.7058,0,0,0,0,0,-1.7419,-1.7425,-1.7402,-1.7391,-1.7319,-1.7282,-1.7272,-1.7221,-1.72,-1.7199,-1.7156,-1.7118,-1.7049,-1.7041,-1.7031,-1.7039,-1.6972,-1.6974,-1.6976,-1.7041,-1.705,-1.7058,0,0,0,0,0,0,-1.7491,-1.7415,-1.7389,-1.7374,-1.7335,-1.7268,-1.7266,-1.7232,-1.7197,-1.7192,-1.7129,-1.7115,-1.7098,-1.7066,-1.7059,-1.7037,-1.7005,-1.7006,-1.7058,-1.7066,-1.7073,-1.708,-1.7001,0,0,0,0,0,-1.7506,-1.7483,-1.7417,-1.741,-1.7393,-1.7333,-1.7315,-1.7279,-1.7236,-1.7219,-1.7174,-1.7132,-1.7101,-1.7082,-1.705,-1.704,-1.7024,-1.704,-1.7047,-1.7053,-1.7054,-1.7046,-1.7052,-1.6985,-1.6985,-1.6985,0,0,-1.7535,-1.7491,-1.748,-1.7424,-1.739,-1.7367,-1.732,-1.7297,-1.728,-1.7215,-1.719,-1.7156,-1.7106,-1.7089,-1.7079,-1.7062,-1.7069,-1.7056,-1.7062,-1.7059,-1.7049,-1.7055,-1.7061,-1.6987,-1.6987,-1.6987,0,0,-1.7576,-1.7541,-1.7531,-1.7498,-1.7447,-1.7408,-1.7406,-1.7345,-1.732,-1.7295,-1.7246,-1.7224,-1.7172,-1.7138,-1.7114,-1.7145,-1.7108,-1.7136,-1.7172,-1.7165,-1.717,-1.7174,-1.7185,-1.7189,-1.7137,-1.7138,-1.7138,0,-1.7618,-1.7582,-1.753,-1.7511,-1.7488,-1.743,-1.7419,-1.739,-1.7331,-1.7316,-1.7298,-1.7232,-1.7194,-1.7169,-1.7177,-1.716,-1.7155,-1.7142,-1.7174,-1.7178,-1.7181,-1.719,-1.7194,-1.7141,-1.7141,-1.714,-1.714,0,-1.7636,-1.7613,-1.7611,-1.7557,-1.7534,-1.7519,-1.7464,-1.7447,-1.7414,-1.7376,-1.7351,-1.7304,-1.7262,-1.7253,-1.722,-1.7223,-1.7214,-1.7186,-1.7153,-1.7192,-1.7199,-1.7202,-1.7147,-1.7145,-1.7144,-1.7143,0,0,-1.7718,-1.7637,-1.7637,-1.7612,-1.7553,-1.7533,-1.7516,-1.7476,-1.7462,-1.7424,-1.7408,-1.7366,-1.734,-1.7313,-1.7276,-1.727,-1.7297,-1.7242,-1.724,-1.7253,-1.7298,-1.7318,-1.7323,-1.7273,-1.7274,-1.7274,-1.7301,0,-1.7749,-1.7716,-1.7669,-1.7651,-1.7629,-1.7575,-1.756,-1.7522,-1.7487,-1.7462,-1.7423,-1.7394,-1.7362,-1.7346,-1.7338,-1.7296,-1.7305,-1.7293,-1.7256,-1.7256,-1.7269,-1.7327,-1.7349,-1.7377,-1.7304,-1.7305,-1.7305,0,-1.778,-1.7747,-1.7727,-1.7671,-1.7659,-1.7647,-1.7607,-1.7584,-1.754,-1.7515,-1.7486,-1.7446,-1.7425,-1.7397,-1.7366,-1.736,-1.7342,-1.7319,-1.7319,-1.7312,-1.7282,-1.7321,-1.7384,-1.7389,-1.7309,-1.7309,-1.7308,0,-1.7841,-1.7791,-1.7773,-1.7753,-1.7687,-1.768,-1.7651,-1.7606,-1.7585,-1.755,-1.7536,-1.7499,-1.7478,-1.745,-1.7401,-1.7385,-1.7375,-1.7343,-1.7353,-1.7355,-1.7352,-1.7353,-1.7413,-1.7343,-1.7343,-1.7343,-1.7343,0,-1.788,-1.787,-1.7799,-1.7788,-1.7775,-1.7722,-1.771,-1.7677,-1.7638,-1.7619,-1.757,-1.7553,-1.749,-1.7465,-1.7427,-1.7407,-1.7398,-1.7377,-1.7367,-1.7381,-1.7383,-1.7367,-1.7363,-1.7344,-1.7344,-1.7344,-1.7344,0,-1.7945,-1.7897,-1.7874,-1.7814,-1.7799,-1.7792,-1.774,-1.7727,-1.769,-1.7667,-1.7658,-1.76,-1.7569,-1.7518,-1.7471,-1.7445,-1.7432,-1.7416,-1.7448,-1.7441,-1.7454,-1.7453,-1.7504,-1.7508,-1.7438,-1.7439,-1.744,0,-1.7972,-1.7963,-1.7903,-1.7887,-1.7861,-1.7837,-1.7816,-1.7763,-1.7743,-1.7693,-1.7686,-1.7651,-1.762,-1.7573,-1.7526,-1.749,-1.7471,-1.7492,-1.7466,-1.748,-1.7471,-1.7472,-1.747,-1.7498,-1.7499,-1.75,-1.75,0,-1.8025,-1.8003,-1.7975,-1.7939,-1.7916,-1.7885,-1.7851,-1.7841,-1.778,-1.776,-1.7729,-1.7705,-1.7659,-1.7625,-1.7583,-1.7553,-1.7516,-1.7509,-1.751,-1.7523,-1.7542,-1.7531,-1.7463,-1.7508,-1.7507,-1.7507,-1.7506,-1.7506,-1.8071,-1.8061,-1.8018,-1.7988,-1.7958,-1.7928,-1.7913,-1.7875,-1.7848,-1.7807,-1.7777,-1.7748,-1.7704,-1.7644,-1.7617,-1.7592,-1.7576,-1.7576,-1.7576,-1.7577,-1.7582,-1.7547,-1.7584,-1.7584,-1.7584,-1.7583,-1.7583,0,-1.8122,-1.8091,-1.8065,-1.8021,-1.7998,-1.7967,-1.7929,-1.7911,-1.7886,-1.7849,-1.7821,-1.7784,-1.7752,-1.7703,-1.7666,-1.7656,-1.7638,-1.7648,-1.7648,-1.7641,-1.7599,-1.7602,-1.7663,-1.7663,-1.7663,-1.7663,-1.7663,-1.7663,-1.8145,-1.8126,-1.8099,-1.8065,-1.8034,-1.8005,-1.7986,-1.7958,-1.7929,-1.7891,-1.7864,-1.7833,-1.7791,-1.7751,-1.772,-1.7706,-1.7694,-1.7709,-1.7691,-1.7652,-1.7644,-1.7637,-1.764,-1.7708,-1.7708,-1.7735,-1.7735,-1.7735]},{"header":{"parameterUnit":"m.s-1","parameterCategory":1,"la1":30.2991,"la2":30.254,"lo1":-89.0895,"lo2":-89.0444,"dy":0.0017,"dx":0.0017,"nx":28,"ny":28,"refTime":"2025-06-03T21:00:00:Z","depth":0,"parameterNumber":3,"parameterNumberName":"V-component_of_WINDS"},"data":[0,0,0,0,0,0,0,0,0,0,0,0,0,0,0,0,0,0,0,0,0,0,0,0,0,0,0,0,0,0,0,0,0,0,0,0,0,0,0,0,0,0,0,0,0,0,0,0,0,0,0,0,0,0,0,0,0,0,2.3111,2.3111,0,2.3073,2.3073,2.3072,2.3056,2.3056,2.3056,2.3056,2.3014,2.3013,2.3011,0,0,0,0,0,0,0,0,0,0,0,0,0,2.3167,2.3166,2.3111,2.3111,2.311,2.3073,2.3073,2.3072,2.3056,2.3056,2.3056,2.3056,2.3014,2.3013,2.3011,0,0,0,0,0,0,0,0,0,0,0,0,0,2.3137,2.3166,2.3111,2.3098,2.3096,2.3073,2.3073,2.3072,2.3056,2.3056,2.3056,2.3056,2.3015,2.3013,2.3011,2.2997,0,0,2.3006,2.3005,0,0,0,0,0,0,0,0,2.3139,2.3135,2.31,2.3099,2.3097,2.307,2.3077,2.3047,2.3056,2.3071,2.3056,2.3056,2.3032,2.3029,2.3021,2.2995,2.2994,2.3005,2.3004,2.3003,2.3003,0,0,0,0,0,0,0,2.3141,2.3137,2.3096,2.31,2.3098,2.3093,2.3089,2.3071,2.3051,2.307,2.3069,2.3065,2.3031,2.3023,2.302,2.2993,2.3005,2.3004,2.3003,2.3002,2.2954,2.2954,0,0,0,0,0,0,2.3146,2.3139,2.3097,2.3095,2.3119,2.3092,2.3087,2.3078,2.3051,2.3048,2.3064,2.3064,2.3026,2.3022,2.3018,2.3001,2.3003,2.3002,2.3001,2.2954,2.2954,2.2954,0,0,0,0,0,0,2.3147,2.3142,2.3099,2.3116,2.311,2.3091,2.3081,2.3077,2.3069,2.3047,2.3043,2.306,2.3026,2.3021,2.3003,2.2999,2.3001,2.2999,2.2955,2.2954,2.2954,2.2966,0,0,0,0,0,0,2.3149,2.3143,2.3138,2.3116,2.311,2.3085,2.308,2.3076,2.3067,2.3066,2.3042,2.3038,2.3026,2.3006,2.3001,2.2997,2.2998,2.2955,2.2955,2.2954,2.2966,2.2966,2.2966,0,0,0,0,0,2.3151,2.3142,2.3138,2.3133,2.3103,2.3085,2.3081,2.3067,2.3066,2.3061,2.3047,2.3039,2.3001,2.3004,2.2999,2.2994,2.2955,2.2955,2.2954,2.2965,2.2966,2.2966,0,0,0,0,0,0,2.3162,2.3139,2.3134,2.3118,2.3104,2.3082,2.3075,2.3068,2.3052,2.3052,2.3035,2.303,2.3013,2.3001,2.3006,2.2979,2.2977,2.2976,2.2987,2.2988,2.2988,2.2991,2.2996,0,0,0,0,0,2.3163,2.3151,2.3131,2.3118,2.3112,2.3095,2.3086,2.3077,2.3061,2.3054,2.3039,2.3022,2.3007,2.2996,2.2981,2.2964,2.2958,2.2958,2.2958,2.2958,2.2957,2.2948,2.2947,2.2953,2.2953,2.2953,0,0,2.3164,2.315,2.3143,2.312,2.3108,2.3095,2.3089,2.3075,2.3065,2.3052,2.3034,2.3022,2.3003,2.2986,2.2977,2.2976,2.2955,2.2958,2.2958,2.2957,2.2947,2.2947,2.2946,2.2952,2.2952,2.2953,0,0,2.316,2.3148,2.3137,2.3125,2.3107,2.3096,2.3093,2.3073,2.3065,2.3048,2.3037,2.3024,2.2997,2.2984,2.2974,2.2966,2.2958,2.2961,2.2962,2.2953,2.2953,2.2952,2.2949,2.2948,2.296,2.296,2.296,0,2.3163,2.3144,2.3132,2.3119,2.3109,2.3098,2.3086,2.3074,2.3052,2.3045,2.3044,2.301,2.2996,2.2976,2.2974,2.2966,2.2962,2.2963,2.2954,2.2953,2.2953,2.295,2.2948,2.296,2.296,2.296,2.296,0,2.3149,2.3136,2.3129,2.3109,2.3099,2.3086,2.3071,2.3062,2.3054,2.3043,2.3025,2.3008,2.2989,2.2984,2.2975,2.2962,2.2962,2.2957,2.2955,2.2953,2.295,2.2948,2.2961,2.2961,2.2961,2.2961,0,0,2.315,2.3125,2.3122,2.3113,2.3093,2.3082,2.3069,2.3052,2.3044,2.3029,2.3017,2.2995,2.2991,2.298,2.297,2.2962,2.2957,2.2959,2.2958,2.2959,2.2941,2.2945,2.2943,2.2952,2.2951,2.2951,2.2943,0,2.3143,2.3121,2.3109,2.3091,2.3079,2.3068,2.3057,2.3043,2.3032,2.3019,2.3007,2.2992,2.2988,2.2981,2.2973,2.2959,2.2953,2.296,2.294,2.2939,2.2945,2.2942,2.2945,2.2938,2.2942,2.2941,2.2941,0,2.3132,2.3118,2.31,2.3081,2.3076,2.3066,2.3049,2.3037,2.3021,2.3014,2.3002,2.2992,2.2977,2.2977,2.2956,2.2961,2.2952,2.2944,2.2943,2.2941,2.294,2.2939,2.2935,2.2934,2.2939,2.2939,2.2939,0,2.3134,2.3111,2.3097,2.309,2.3068,2.3062,2.3052,2.3036,2.3027,2.3012,2.3005,2.2989,2.2979,2.2966,2.2952,2.2953,2.2933,2.2931,2.2926,2.2926,2.2922,2.2922,2.2917,2.2917,2.2917,2.2917,2.2917,0,2.3128,2.3116,2.3098,2.309,2.3077,2.3064,2.3051,2.3041,2.3027,2.3015,2.3004,2.2994,2.2976,2.2963,2.2952,2.2936,2.2932,2.2925,2.2923,2.2926,2.2927,2.292,2.292,2.2916,2.2916,2.2916,2.2916,0,2.3128,2.3116,2.31,2.3081,2.3076,2.3068,2.3051,2.3042,2.3031,2.3017,2.3013,2.2995,2.2979,2.2964,2.2943,2.2935,2.292,2.2916,2.2926,2.2924,2.292,2.2921,2.291,2.2908,2.2909,2.2909,2.2909,0,2.3124,2.3116,2.3097,2.3089,2.308,2.3067,2.3058,2.3045,2.3035,2.3017,2.301,2.2993,2.2979,2.2954,2.2939,2.2923,2.2918,2.2916,2.2916,2.292,2.2918,2.2919,2.2918,2.2916,2.2916,2.2916,2.2916,0,2.3119,2.3114,2.3101,2.3087,2.3076,2.3064,2.3051,2.3045,2.3029,2.3019,2.3003,2.2993,2.2971,2.2955,2.2937,2.2926,2.2918,2.2916,2.2914,2.2918,2.2924,2.2921,2.2926,2.2916,2.2916,2.2916,2.2916,2.2916,2.3117,2.311,2.3095,2.3082,2.3071,2.3059,2.305,2.3039,2.3026,2.3008,2.3001,2.2985,2.2969,2.2945,2.2934,2.2921,2.2919,2.2916,2.2915,2.2915,2.2915,2.2926,2.2917,2.2917,2.2917,2.2917,2.2917,0,2.3112,2.3102,2.309,2.3073,2.3062,2.3057,2.3043,2.3034,2.3021,2.3007,2.2994,2.2976,2.2961,2.2945,2.2928,2.2921,2.2917,2.2917,2.2917,2.2915,2.2918,2.2921,2.2921,2.2921,2.2921,2.2921,2.2921,2.2921,2.3107,2.3094,2.3087,2.3068,2.3058,2.3043,2.3036,2.3025,2.3014,2.2995,2.2983,2.2973,2.2958,2.2941,2.2926,2.2922,2.2916,2.2917,2.2912,2.2915,2.2915,2.2914,2.2918,2.2916,2.2916,2.2909,2.2909,2.2909]}]]